Location: *
(49.0044°N, 9.5056°E)
Time: 21:50:53
(UTC+00:00)

ISS - Pass Details

Date: 22 September 2019
Orbit: 411 x 421 km, 51.6° (Epoch: 19 October)

Event Time Altitude Azimuth Distance (km) Brightness Sun altitude
Rises 17:42:02 0° 209° (SSW) 2,333 0.4 -4.3°
Reaches altitude 10° 17:44:25 10° 192° (SSW) 1,475 -0.9 -4.7°
Maximum altitude 17:47:00 21° 141° (SE) 983 -2.3 -5.1°
Drops below altitude 10° 17:49:35 10° 90° (E) 1,481 -1.6 -5.5°
Enters shadow 17:50:18 - 83° (E) 1,727 -1.3 -5.7°
